This is the latest recevied weather packets stored in our database for station/object JA7ZQY-10. If no packets are shown the sender has not sent any weather packets the latest 10 day(s).
| Time | Temp. | Humidity | Pressure | Rain* | Wind** | Luminosity | Snow |
|---|---|---|---|---|---|---|---|
| 1778093090 | 11.67° C | 70% | 1015.4 hPa | 0 mm | - | - | - |
| 1778092490 | 11.67° C | 70% | 1015.4 hPa | 0 mm | - | - | - |
| 1778091891 | 12.22° C | 70% | 1015.3 hPa | 0 mm | - | - | - |
| 1778091291 | 12.22° C | 70% | 1015.2 hPa | 0 mm | - | - | - |
| 1778090691 | 12.22° C | 69% | 1015.6 hPa | 0 mm | - | - | - |
| 1778090090 | 12.22° C | 64% | 1015.8 hPa | 0 mm | - | - | - |
| 1778089489 | 12.22° C | 67% | 1015.9 hPa | 0 mm | - | - | - |
| 1778088890 | 12.78° C | 62% | 1015.8 hPa | 0 mm | - | - | - |
| 1778088290 | 12.78° C | 62% | 1015.7 hPa | 0 mm | - | - | - |
| 1778087690 | 12.78° C | 61% | 1016 hPa | 0 mm | - | - | - |
| 1778087091 | 13.33° C | 60% | 1016.1 hPa | 0 mm | - | - | - |
| 1778086491 | 13.89° C | 60% | 1016.2 hPa | 0 mm | - | - | - |
| 1778085890 | 13.33° C | 60% | 1016.1 hPa | 0 mm | - | - | - |
| 1778085291 | 13.33° C | 58% | 1016.5 hPa | 0 mm | - | - | - |
| 1778084690 | 13.33° C | 58% | 1016.4 hPa | 0 mm | - | - | - |
| 1778084091 | 13.89° C | 57% | 1016.2 hPa | 0 mm | - | - | - |
| 1778083491 | 13.89° C | 56% | 1016 hPa | 0 mm | - | - | - |
| 1778082890 | 13.89° C | 55% | 1016.3 hPa | 0 mm | - | - | - |
| 1778082291 | 14.44° C | 55% | 1016.2 hPa | 0 mm | - | - | - |
| 1778081690 | 14.44° C | 54% | 1016.4 hPa | 0 mm | - | - | - |
| 1778081091 | 14.44° C | 53% | 1016.5 hPa | 0 mm | - | - | - |
| 1778080490 | 14.44° C | 53% | 1016.7 hPa | 0 mm | - | - | - |
| 1778079890 | 14.44° C | 53% | 1016.4 hPa | 0 mm | - | - | - |
| 1778079291 | 15° C | 52% | 1016.4 hPa | 0 mm | - | - | - |
| 1778078691 | 15° C | 52% | 1016.1 hPa | 0 mm | - | - | - |
* Rain latest hour (hover to see other rain measurements)
** Current wind speed in m/s (hover to see current wind gust speed)